{"data":{"norad_id":38014,"intl_designator":"2011-077A","name":"NIGCOMSAT 1R","alt_names":[],"object_type":"PAYLOAD","status":"ACTIVE","operator":null,"country":"NIG","launch_date":"2011-12-19","launch_site_code":"XICLF","launch_vehicle":null,"mission":null,"orbit_class":"UNKNOWN","rcs_meters":18.4944,"size_class":null,"mass_kg":null,"dimensions":null,"purposes":["comms"],"wikipedia_slug":null,"has_3d_model":false,"image_url":null,"decayed_at":null,"tle_current":{"epoch":"2026-09-19T03:29:15.335232Z","epoch_age_seconds":135209,"freshness":"FRESH","line1":"1 38014U 11077A   26262.14531638  .00000141  00000+0  00000+0 0  9995","line2":"2 38014   0.0461 241.5829 0002672 100.9032 110.4285  1.00269633 53898","mean_motion":1.00269633,"eccentricity":0.0002672,"inclination_deg":0.0461,"raan_deg":241.5829,"arg_perigee_deg":100.9032,"mean_anomaly_deg":110.4285,"bstar":0,"rev_number":5389,"period_min":1436.1277257293,"perigee_km":35775.93167812,"apogee_km":35798.464833281,"semimajor_km":42165.3352557,"source":"CELESTRAK","updated_at":"2026-09-20T09:00:35.172387Z"}}}